Location: Julian California
(33.0790°N, 116.6010°W)
Time: 01:53:46
(UTC-07:00)

Meteor 1-11 Rocket - Pass Details

Date: 19 May 2017
Orbit: 832 x 915 km, 81.2° (Epoch: 28 June)

Event Time Altitude Azimuth Distance (km) Brightness Sun altitude
Rises 20:01:39 0° 350° (N) 3,439 7.5 -4.5°
Reaches altitude 10° 20:04:04 10° 349° (N) 2,511 6.8 -4.9°
Maximum altitude 20:09:47 80° 264° (W) 897 4.0 -6.0°
Drops below altitude 10° 20:15:35 10° 178° (S) 2,553 5.9 -7.1°
Sets 20:18:03 0° 177° (S) 3,500 6.6 -7.5°
